Powrót do katalogu

STARLINK-31881

AktywnyŁącznośćVLEO
NORAD 59659·PAYLOAD·🇺🇸 United States

Wystrzelony May 6, 2024 z Cape Canaveral Space Force Station

Loading…

Następne Przeloty (najbliższe 24 godziny)

TLE

ŚwieżeSource: CelesTrak SupGP

Epoka: Sep 15, 2026, 03:11 UTC

1 59659C 24084F   26258.13312500 -.00030472  00000+0 -11033-2 0  2585
2 59659  43.0035  48.0915 0002117 273.6431 325.8342 15.27604905    12

Śledź STARLINK-31881 w czasie rzeczywistym z AllMySat

Download on the App Store